Regional Weather Roundup
Issued by NWS

Home | Current Version | Previous Version | Text Only | Print | Product List | Glossary Off
Versions: 1 2 3 4 5 6 7 8 9 10 11 12 13 14 15 16 17 18 19 20 21 22 23 24 25 26 27 28 29 30 31 32 33 34 35 36 37 38 39 40 41 42 43 44 45 46 47 48 49 50

000
ASUS43 KMKX 121111
RWRWI

WISCONSIN REGIONAL WEATHER ROUNDUP
NATIONAL WEATHER SERVICE MILWAUKEE/SULLIVAN WI
600 AM CDT SAT JUL 12 2014

NOTE: "FAIR" INDICATES FEW OR NO CLOUDS BELOW 12,000 FEET WITH NO
SIGNIFICANT WEATHER AND/OR OBSTRUCTIONS TO VISIBILITY.

WIZ001-002-006>008-014>016-023>028-121200-
NORTHWEST WISCONSIN

CITY           SKY/WX    TMP DP  RH WIND       PRES   REMARKS
SUPERIOR ARPT  MOCLDY    60  60 100 CALM      30.00R FOG
ASHLAND        CLOUDY    66  65  96 SW6       29.99R FOG
HAYWARD        FOG       61  61 100 CALM      30.02R VSB 1/4
SIREN          MOCLDY    64  63  97 CALM      30.02R FOG
RICE LAKE      FOG       63  62  96 CALM      30.03R VSB 1/2
LADYSMITH        N/A     65  64  96 CALM      30.04S FOG
EAU CLAIRE     CLOUDY    68  67  96 S5        30.02R
MENOMONIE      CLOUDY    68  66  94 SW3       30.02R
NEW RICHMOND   CLOUDY    67  67  99 S6        30.02S FOG
OSCEOLA        MOCLDY    67  67 100 SE3       30.04R FOG
$$

WIZ003>005-009-010-017-018-121200-
NORTH CENTRAL WISCONSIN

CITY           SKY/WX    TMP DP  RH WIND       PRES   REMARKS
WOODRUFF       CLOUDY    63  61  92 CALM      30.03R FOG
RHINELANDER    CLOUDY    65  63  93 SW9       30.05R
EAGLE RIVER    CLOUDY    64  64 100 SW5       30.03R
LAND O LAKES   CLOUDY    66  64  94 SW3       30.03R
PHILLIPS       CLOUDY    66  65  96 SW3       30.03R
TOMAHAWK       CLOUDY    65  62  90 CALM      30.05R
MEDFORD        CLOUDY    66  64  92 SW3       30.04F
MERRILL        CLOUDY    66  64  94 CALM      30.05R
$$

WIZ029-030-035-036-043>047-121200-
CENTRAL WISCONSIN

CITY           SKY/WX    TMP DP  RH WIND       PRES   REMARKS
WAUSAU         CLOUDY    67  63  87 CALM      30.03R
MOSINEE        CLOUDY    66  64  94 CALM      30.05R
MARSHFIELD     CLOUDY    67  64  90 W3        30.04S
STEVENS POINT  CLOUDY    65  61  87 CALM      30.04F
WAUPACA        CLOUDY    65  62  89 CALM      30.03F
WAUTOMA        CLOUDY    64  61  90 CALM      30.04F
WISC RAPIDS    CLOUDY    67  63  87 CALM      30.05R
CAMP DOUGLAS   NOT AVBL
$$

WIZ011>013-019>022-031-037>040-048>050-121200-
NORTHEAST WISCONSIN

CITY           SKY/WX    TMP DP  RH WIND       PRES   REMARKS
ANTIGO         CLOUDY    64  61  93 SW5       30.06R
STURGEON BAY   CLOUDY    64  55  72 SW6       30.04R
GREEN BAY      CLOUDY    67  61  81 SW3       30.04R
MANITOWOC      CLOUDY    62  58  86 CALM      30.05R
APPLETON       CLOUDY    64  59  82 CALM      30.05R
CLINTONVILLE   CLOUDY    64  59  82 CALM      30.04R
OSHKOSH        CLOUDY    68  62  81 CALM      30.03R
$$

WIZ032>034-041-042-053>061-121200-
SOUTHWEST WISCONSIN

CITY           SKY/WX    TMP DP  RH WIND       PRES   REMARKS
LA CROSSE      CLOUDY    71  66  84 CALM      30.01F
SPARTA         CLOUDY    65  63  91 CALM      30.04S
VIROQUA        FAIR      67  67 100 CALM      30.04F
BOSCOBEL       CLOUDY    67  65  93 CALM      30.03R FOG
PRAIRIE DU CHI CLOUDY    68  65  91 CALM      30.03R
PLATTEVILLE    MOCLDY    67  65  93 CALM      30.04R
$$

WIZ056-057-062-063-064-067-068-121200-
SOUTH CENTRAL WISCONSIN

CITY           SKY/WX    TMP DP  RH WIND       PRES   REMARKS
BARABOO/DELLS  CLOUDY    69  62  80 CALM      30.03F
LONE ROCK      CLOUDY    71  65  81 CALM      30.02F
WATERTOWN      MOCLDY    67  62  85 CALM      30.03S
MADISON        CLOUDY    71  63  75 S5        30.03R
MIDDLETON      FAIR      69  63  82 CALM      30.03F
MONROE         MOCLDY    68  63  83 S3        30.03S
JANESVILLE     PTCLDY    68  64  88 E5        30.02R
$$

WIZ051-052-058>065-066-070>072-121200-
SOUTHEAST WISCONSIN

CITY           SKY/WX    TMP DP  RH WIND       PRES   REMARKS
MILWAUKEE      MOCLDY    72  60  66 S5        30.03S
WAUKESHA       MOCLDY    68  59  73 S5        30.04S
MILWAUKEE/TIMM PTCLDY    70  57  64 CALM      30.04F
RACINE         MOCLDY    69  60  73 CALM      30.05S
BURLINGTON     MOCLDY    66  61  84 CALM      30.04R
KENOSHA        MOCLDY    71  61  70 S7        30.04S
FOND DU LAC    CLOUDY    69  61  75 SW5       30.03S
SHEBOYGAN      CLOUDY    63  59  87 CALM      30.05R
WEST BEND      CLOUDY    64  57  77 CALM      30.04S
JUNEAU         CLOUDY    68  47  47 CALM      30.05R
$$

LSZ147-162-121200-
LAKE SUPERIOR

STATION/POSITION TIME  TEMP    WIND        PRES    WAVE
                       AIR SEA DIR/SP/G            HT/PER
                 (UTC) (F)     (DEG/KT/KT) (MB)    (FT/S)
W MID LAKE BUOY  1050   45 38  250/ 10/ 10 1014.4R   0
PORT WING        1000   63     150/  2/  4 1014.9R
SAXON HARBOR     1040          200/  3/  7 1014.9R
$$

LMZ867-665-643>646-121200-
LAKE MICHIGAN

STATION/POSITION TIME  TEMP    WIND        PRES    WAVE
                       AIR SEA DIR/SP/G            HT/PER
                 (UTC) (F)     (DEG/KT/KT) (MB)    (FT/S)
N MID LAKE BUOY  1050   57 55  210/ 14/ 16 1015.8R   2/ 4
NORTHPORT PIER   1000   63     150/  5/  8 1015.9S
KEWAUNEE LAKESHO 1000   53     150/  5/  6 1017.3F
SHEBOYGAN LAKESH 1100   66     200/  4/  5 1017.4R
PORT WASHINGTON  1000   59      CALM  /  1 1017.6S
MILWAUKEE LAKESH 1000   61     180/  3/  4   N/A
S MID LAKE BUOY  1050   64 58  160/  8/ 10 1017.8R   1
KENOSHA   LAKESH 1100   67     180/  9/ 10   N/A
$$

TC  - TEMPERATURE IN CELSIUS
VSB - VISIBILITY IN STATUTE MILES
WCI - WIND CHILL INDEX
HX  - HEAT INDEX



USA.gov is the U.S. government's official web portal to all federal, state and local government web resources and services.